Nuuk Skibakke/Sisorarfiit

KL  EN  DA
ASIAQ
Weather Now GREENLAND SURVEY
Updated [WGT/WGST] Temperature [°C] Wind [m/s] Air pressure [hPa] Relative humidity [%] Precipitation [mm]
Present Wind chill Speed Max
21.01 20:00-12,90,01,0 ⇖2,095787n/a
21.01 19:00-13,00,01,0 ⇗2,895787n/a
21.01 18:00-12,4-16,11,6 ⇗3,495788n/a
21.01 17:00-14,80,01,0 ⇖1,995786n/a
21.01 16:00-13,20,00,4 ⇖1,395787n/a
21.01 15:00-12,40,01,0 ⇗2,195788n/a
21.01 14:00-12,1-15,31,4 ⇗3,095788n/a
21.01 13:00-12,30,01,0 ⇑1,895788n/a
21.01 12:00-11,50,00,7 ⇘1,895789n/a
21.01 11:00-12,0-15,31,4 ⇗2,995788n/a
21.01 10:00-12,3-16,11,7 ⇗2,995788n/a
21.01 09:00-12,5-18,02,6 ⇗5,695788n/a
21.01 08:00-12,3-18,73,4 ⇗6,695788n/a
21.01 07:00-12,5-21,25,8 ⇗9,195688n/a
21.01 06:00-12,5-21,56,3 ⇗8,895688n/a
21.01 05:00-12,5-19,53,9 ⇗7,895588n/a
21.01 04:00-12,1-18,13,1 ⇗5,395588n/a
21.01 03:00-12,0-19,24,2 ⇒5,895588n/a
21.01 02:00-12,3-19,54,1 ⇒6,395488n/a
21.01 01:00-12,2-17,62,7 ⇗5,095488n/a
21.01 00:00-12,1-18,73,5 ⇗6,695488n/a
20.01 23:00-12,0-19,44,3 ⇗6,495388n/a
20.01 22:00-12,2-18,63,5 ⇗5,995388n/a
20.01 21:00-12,0-19,34,2 ⇗6,395288n/a
20.01 20:00-11,9-19,04,1 ⇒6,995288n/a
Position: (64.19036111,-51.64752778)

[Back]